Location: La Pernelle
(49.6188°N, 1.2999°W)
Time: 14:22:59
(UTC+00:00)

Cosmos 2227 - Pass Details

Date: 12 June 2021
Orbit: 835 x 861 km, 71.0° (Epoch: 04 August)

Event Time Altitude Azimuth Distance (km) Brightness Sun altitude
Rises 20:53:42 0° 331° (NNW) 3,399 9.3 -5.7°
Reaches altitude 10° 20:56:10 10° 333° (NNW) 2,459 8.2 -6.0°
Maximum altitude 21:01:49 79° 60° (ENE) 856 4.3 -6.6°
Drops below altitude 10° 21:07:26 10° 148° (SSE) 2,443 5.9 -7.2°
Enters shadow 21:07:47 - 148° (SSE) 2,579 6.1 -7.2°
